DELLINGR (RBLE) (43021 NORAD) Tracking and Keplerian Element Data

This shows tracking and keplerian element data for the satellite.

Feedback or suggestion? Click here.




ElementValue
Catalog43021
NameDELLINGR (RBLE)
Epoch Orbit5560
Epoch Day316.50955811
Epoch Year2018
RAAN351.4314
Inclination51.6402
Eccentricity0.000274
Argument of Perigee12.8566
Mean Anonmoly347.2496
Mean Motion15.59577169
Decay Rate7.766E-05
L11 43021U 98067NJ 18316.50955811 .00007766 00000-0 10199-3 0 9992
L22 43021 51.6402 351.4314 0002740 12.8566 347.2496 15.59577169 55608

Live tracking and technical data element details for DELLINGR (RBLE) (NORAD 43021). DELLINGR (RBLE) can be tracked NOW for your location showing map with azimuth and elevation plus other details from your city location.

Track the satellite on the map from your city or location and see movement details for azimuth, elevation, latitude, longitude, range, height, and movement on the map or in text.







IsCatalogInMostPopularTable: catalog: 43021, numindb: 129
Update: records affected: 1



GetName: 43021 DELLINGR (RBLE)

Hit Count: updated at: Mon, 12 Nov 2018 18:17:00 GMT